JE4YIZ-13 Weather Reports


time (UTC)temp
C
wind
direction
speed
KPH
gust
KPH
rain 1hr
cm
rain 24hr
cm
rain mn
cm
humidity
%
barometer
mb
20260509091624 21 176 8.0 16.1 0.00 0.00 0.00 44 1015.6
20260509091134 21 247 9.7 16.1 0.00 0.00 0.00 43 1015.5
20260509090617 21 208 4.8 11.3 0.00 0.00 0.00 42 1015.4
20260509090147 22 174 4.8 11.3 0.00 0.00 0.00 40 1015.4
20260509085634 22 186 3.2 14.5 0.00 0.00 0.00 40 1015.4
20260509085116 22 141 6.4 14.5 0.00 0.00 0.00 40 1015.3
20260509084626 22 141 3.2 9.7 0.00 0.00 0.00 39 1015.3
20260509084154 22 135 3.2 9.7 0.00 0.00 0.00 39 1015.3
20260509083116 22 116 3.2 12.9 0.00 0.00 0.00 39 1015.1
20260509082625 22 128 4.8 14.5 0.00 0.00 0.00 38 1015.1
20260509082135 22 156 4.8 14.5 0.00 0.00 0.00 38 1015.0
20260509081618 22 162 3.2 11.3 0.00 0.00 0.00 37 1015.0
20260509081149 22 125 6.4 12.9 0.00 0.00 0.00 38 1015.0
20260509080659 22 132 4.8 12.9 0.00 0.00 0.00 36 1015.0
20260509080113 22 149 3.2 12.9 0.00 0.00 0.00 38 1014.9
20260509075623 22 111 6.4 16.1 0.00 0.00 0.00 37 1014.9
20260509075131 22 172 8.0 16.1 0.00 0.00 0.00 37 1014.8
20260509074644 22 112 8.0 14.5 0.00 0.00 0.00 37 1014.8
20260509074119 22 100 6.4 14.5 0.00 0.00 0.00 37 1014.7
20260509073628 22 169 8.0 14.5 0.00 0.00 0.00 35 1014.7
20260509073137 22 103 3.2 16.1 0.00 0.00 0.00 36 1014.7
20260509072620 22 85 8.0 16.1 0.00 0.00 0.00 35 1014.7
20260509072126 22 84 6.4 12.9 0.00 0.00 0.00 37 1014.7
20260509071636 22 151 6.4 12.9 0.00 0.00 0.00 36 1014.7
20260509071118 22 63 4.8 16.1 0.00 0.00 0.00 36 1014.7
20260509070628 22 63 9.7 16.1 0.00 0.00 0.00 34 1014.8
20260509070136 22 65 6.4 14.5 0.00 0.00 0.00 35 1014.7
20260509065618 22 90 8.0 19.3 0.00 0.00 0.00 36 1014.8
20260509065128 22 140 4.8 19.3 0.00 0.00 0.00 34 1014.8
20260509064633 22 145 8.0 17.7 0.00 0.00 0.00 35 1014.9
20260509064116 22 70 6.4 17.7 0.00 0.00 0.00 36 1014.9
20260509063646 22 54 9.7 19.3 0.00 0.00 0.00 35 1015.0
20260509063156 22 48 8.0 17.7 0.00 0.00 0.00 36 1014.9
20260509062636 21 67 9.7 19.3 0.00 0.00 0.00 37 1014.9
20260509062125 21 54 11.3 19.3 0.00 0.00 0.00 36 1014.9
20260509061635 21 35 9.7 16.1 0.00 0.00 0.00 35 1015.0
20260509061114 21 76 6.4 16.1 0.00 0.00 0.00 37 1015.1
20260509060619 21 104 9.7 16.1 0.00 0.00 0.00 36 1015.1
20260509060128 21 120 8.0 14.5 0.00 0.00 0.00 36 1015.2
20260509055636 21 118 8.0 19.3 0.00 0.00 0.00 37 1015.3
20260509055117 21 70 12.9 19.3 0.00 0.00 0.00 38 1015.4
20260509054626 21 72 12.9 19.3 0.00 0.00 0.00 38 1015.5
20260509054135 21 60 9.7 19.3 0.00 0.00 0.00 39 1015.5
20260509053618 21 38 11.3 19.3 0.00 0.00 0.00 40 1015.6
20260509053129 21 54 11.3 19.3 0.00 0.00 0.00 41 1015.6
20260509052633 21 60 8.0 12.9 0.00 0.00 0.00 43 1015.8
20260509052115 21 115 8.0 16.1 0.00 0.00 0.00 41 1015.8
20260509051625 21 63 8.0 16.1 0.00 0.00 0.00 40 1015.8
20260509051134 21 87 4.8 16.1 0.00 0.00 0.00 42 1015.9
20260509050616 21 86 4.8 16.1 0.00 0.00 0.00 42 1016.0
20260509050125 21 56 8.0 14.5 0.00 0.00 0.00 43 1016.1
20260509045657 20 75 8.0 20.9 0.00 0.00 0.00 44 1016.2
20260509045118 20 82 11.3 20.9 0.00 0.00 0.00 42 1016.2
20260509044645 20 82 9.7 16.1 0.00 0.00 0.00 42 1016.2
20260509044146 21 56 6.4 16.1 0.00 0.00 0.00 42 1016.2
20260509043635 21 84 8.0 16.1 0.00 0.00 0.00 43 1016.2
20260509043117 20 77 8.0 16.1 0.00 0.00 0.00 42 1016.3
20260509042628 20 38 8.0 16.1 0.00 0.00 0.00 42 1016.3
20260509042112 20 78 8.0 16.1 0.00 0.00 0.00 41 1016.3
20260509041612 20 25 8.0 16.1 0.00 0.00 0.00 40 1016.3
20260509041137 20 58 11.3 16.1 0.00 0.00 0.00 40 1016.4
20260509040618 20 18 9.7 14.5 0.00 0.00 0.00 37 1016.4
20260509040123 20 29 8.0 14.5 0.00 0.00 0.00 37 1016.5
20260509035655 20 45 9.7 19.3 0.00 0.00 0.00 38 1016.6
20260509035116 20 34 9.7 19.3 0.00 0.00 0.00 37 1016.7
20260509034625 19 67 9.7 17.7 0.00 0.00 0.00 39 1016.6
20260509034157 19 85 8.0 17.7 0.00 0.00 0.00 40 1016.7
20260509033617 19 77 9.7 17.7 0.00 0.00 0.00 38 1016.7
20260509033121 19 339 11.3 17.7 0.00 0.00 0.00 38 1016.7
20260509032630 19 116 9.7 17.7 0.00 0.00 0.00 40 1016.7
20260509032132 19 80 9.7 16.1 0.00 0.00 0.00 42 1016.9
20260509031620 19 49 11.3 16.1 0.00 0.00 0.00 44 1016.8
20260509031149 19 30 9.7 20.9 0.00 0.00 0.00 41 1016.9
20260509030611 18 59 11.3 20.9 0.00 0.00 0.00 45 1017.0
20260509030141 18 136 11.3 19.3 0.00 0.00 0.00 48 1017.0
20260509025625 18 90 8.0 19.3 0.00 0.00 0.00 50 1017.1
20260509025155 18 36 8.0 16.1 0.00 0.00 0.00 50 1017.2
20260509024615 18 60 6.4 16.1 0.00 0.00 0.00 50 1017.3
20260509024124 18 87 9.7 16.1 0.00 0.00 0.00 52 1017.2
20260509023634 18 54 8.0 16.1 0.00 0.00 0.00 52 1017.3
20260509023114 18 7 9.7 16.1 0.00 0.00 0.00 54 1017.3
20260509022614 18 28 8.0 16.1 0.00 0.00 0.00 53 1017.3
20260509022123 18 68 9.7 16.1 0.00 0.00 0.00 53 1017.3
20260509021629 18 43 8.0 14.5 0.00 0.00 0.00 55 1017.3
20260509021112 18 34 8.0 16.1 0.00 0.00 0.00 54 1017.4
20260509020622 18 98 11.3 16.1 0.00 0.00 0.00 52 1017.4
20260509020130 18 76 9.7 16.1 0.00 0.00 0.00 54 1017.5
20260509015612 18 20 8.0 14.5 0.00 0.00 0.00 54 1017.5
20260509015114 18 62 6.4 12.9 0.00 0.00 0.00 58 1017.5
20260509014624 18 53 6.4 12.9 0.00 0.00 0.00 55 1017.6
20260509014133 18 66 6.4 11.3 0.00 0.00 0.00 56 1017.7
20260509013619 18 353 6.4 11.3 0.00 0.00 0.00 55 1017.7
20260509013128 17 54 6.4 12.9 0.00 0.00 0.00 57 1017.6
20260509012638 17 1 6.4 12.9 0.00 0.00 0.00 54 1017.7
20260509012119 17 340 8.0 11.3 0.00 0.00 0.00 54 1017.7
20260509011630 17 316 6.4 11.3 0.00 0.00 0.00 54 1017.9
20260509011112 17 49 6.4 12.9 0.00 0.00 0.00 51 1017.8
20260509010613 17 63 8.0 12.9 0.00 0.00 0.00 51 1017.9
20260509010119 17 51 6.4 16.1 0.00 0.00 0.00 53 1017.9
20260509005629 17 51 8.0 16.1 0.00 0.00 0.00 53 1017.8
20260509005133 17 24 6.4 11.3 0.00 0.00 0.00 51 1017.9
20260509004622 17 65 6.4 11.3 0.00 0.00 0.00 51 1017.8
20260509004132 17 29 4.8 12.9 0.00 0.00 0.00 51 1017.7
20260509003615 17 48 6.4 12.9 0.00 0.00 0.00 49 1017.8
20260509003122 17 340 8.0 11.3 0.00 0.00 0.00 49 1017.7
20260509002653 17 58 4.8 12.9 0.00 0.00 0.00 51 1017.7
20260509002111 17 60 6.4 12.9 0.00 0.00 0.00 52 1017.7
20260509001642 17 52 6.4 9.7 0.00 0.00 0.00 53 1017.7
20260509001201 17 27 3.2 9.7 0.00 0.00 0.00 52 1017.7
20260509000626 17 96 6.4 12.9 0.00 0.00 0.00 53 1017.7
20260509000135 17 82 8.0 12.9 0.00 0.00 0.00 52 1017.6
20260508235617 17 80 4.8 8.0 0.00 0.00 0.00 52 1017.7
20260508235148 17 82 3.2 8.0 0.00 0.00 0.00 52 1017.7
20260508234631 17 110 3.2 9.7 0.00 0.00 0.00 53 1017.6
20260508234114 17 103 6.4 9.7 0.00 0.00 0.00 51 1017.6
20260508233644 17 78 4.8 9.7 0.00 0.00 0.00 53 1017.6
20260508233130 17 86 1.6 8.0 0.00 0.00 0.00 56 1017.7
20260508232613 17 65 4.8 6.4 0.00 0.00 0.00 57 1017.6
20260508232122 17 86 3.2 6.4 0.00 0.00 0.00 57 1017.6
20260508231653 17 131 1.6 4.8 0.00 0.00 0.00 55 1017.6
20260508231115 17 95 1.6 4.8 0.00 0.00 0.00 56 1017.5
20260508230621 17 109 1.6 3.2 0.00 0.00 0.00 56 1017.5
20260508230152 17 175 1.6 3.2 0.00 0.00 0.00 54 1017.5
20260508225636 17 148 0.0 1.6 0.00 0.00 0.00 57 1017.5
20260508225124 17 148 0.0 1.6 0.00 0.00 0.00 57 1017.5
20260508224632 17 148 0.0 1.6 0.00 0.00 0.00 57 1017.5
20260508224116 17 148 0.0 1.6 0.00 0.00 0.00 57 1017.4
20260508223627 17 158 0.0 0.0 0.00 0.00 0.00 60 1017.4
20260508223153 16 176 0.0 0.0 0.00 0.00 0.00 62 1017.4
20260508222615 16 176 0.0 0.0 0.00 0.00 0.00 64 1017.3
20260508222124 16 176 0.0 0.0 0.00 0.00 0.00 66 1017.3
20260508221634 15 176 0.0 0.0 0.00 0.00 0.00 71 1017.3
20260508221117 15 177 0.0 0.0 0.00 0.00 0.00 73 1017.2
20260508220627 14 176 0.0 0.0 0.00 0.00 0.00 77 1017.2
20260508220136 13 177 0.0 0.0 0.00 0.00 0.00 78 1017.1
20260508215619 12 177 0.0 0.0 0.00 0.00 0.00 79 1017.1
20260508215129 12 177 0.0 0.0 0.00 0.00 0.00 81 1017.1
20260508214614 12 177 0.0 0.0 0.00 0.00 0.00 82 1017.0
20260508214124 11 177 0.0 0.0 0.00 0.00 0.00 84 1017.0
20260508213635 11 177 0.0 1.6 0.00 0.00 0.00 85 1016.8
20260508213138 10 177 0.0 1.6 0.00 0.00 0.00 85 1016.8
20260508212627 10 177 0.0 1.6 0.00 0.00 0.00 86 1016.8
20260508212132 10 177 1.6 1.6 0.00 0.00 0.00 86 1016.6
20260508211642 9 177 1.6 1.6 0.00 0.00 0.00 86 1016.7
20260508211148 9 177 0.0 1.6 0.00 0.00 0.00 86 1016.6
20260508210638 9 177 0.0 0.0 0.00 0.00 0.00 85 1016.7
20260508210122 9 177 0.0 1.6 0.00 0.00 0.00 85 1016.4
20260508205116 9 177 0.0 1.6 0.00 0.00 0.00 85 1016.3
20260508204626 9 177 1.6 1.6 0.00 0.00 0.00 85 1016.2
20260508204136 9 177 1.6 1.6 0.00 0.00 0.00 85 1016.3
20260508203615 9 177 1.6 1.6 0.00 0.00 0.00 85 1016.3
20260508203124 9 177 1.6 1.6 0.00 0.00 0.00 85 1016.2
20260508202630 9 177 1.6 1.6 0.00 0.00 0.00 85 1016.3
20260508202113 9 177 1.6 1.6 0.00 0.00 0.00 84 1016.3
20260508201625 9 177 0.0 1.6 0.00 0.00 0.00 84 1016.3
20260508201154 9 177 0.0 1.6 0.00 0.00 0.00 84 1016.1
20260508200615 9 177 0.0 1.6 0.00 0.00 0.00 84 1016.1
20260508200124 10 177 0.0 1.6 0.00 0.00 0.00 84 1016.0
20260508195634 10 178 1.6 1.6 0.00 0.00 0.00 84 1016.0
20260508195118 10 177 0.0 3.2 0.00 0.00 0.00 83 1016.0
20260508194623 10 178 1.6 3.2 0.00 0.00 0.00 83 1016.1
20260508194132 10 176 1.6 1.6 0.00 0.00 0.00 83 1016.0
20260508193613 10 176 1.6 3.2 0.00 0.00 0.00 82 1015.8
20260508193122 10 176 0.0 3.2 0.00 0.00 0.00 82 1015.9
20260508192653 10 176 1.6 3.2 0.00 0.00 0.00 82 1015.9
20260508192115 10 175 0.0 1.6 0.00 0.00 0.00 82 1015.9
20260508191625 10 175 0.0 1.6 0.00 0.00 0.00 81 1015.8
20260508191153 10 175 0.0 1.6 0.00 0.00 0.00 81 1015.6
20260508190615 10 178 0.0 1.6 0.00 0.00 0.00 80 1015.4
20260508190122 11 178 0.0 1.6 0.00 0.00 0.00 80 1015.3
20260508185633 11 178 0.0 1.6 0.00 0.00 0.00 80 1015.4
20260508185116 11 186 0.0 0.0 0.00 0.00 0.00 79 1015.2
20260508184628 11 186 0.0 0.0 0.00 0.00 0.00 79 1015.3
20260508184112 11 186 0.0 0.0 0.00 0.00 0.00 78 1015.2
20260508183613 11 186 0.0 0.0 0.00 0.00 0.00 77 1015.0
20260508183120 11 186 0.0 3.2 0.00 0.00 0.00 77 1015.0
20260508182628 12 186 0.0 4.8 0.00 0.00 0.00 76 1015.0
20260508182136 12 186 1.6 6.4 0.00 0.00 0.00 76 1014.9
20260508181618 12 184 1.6 6.4 0.00 0.00 0.00 75 1014.9
20260508181128 12 188 1.6 6.4 0.00 0.00 0.00 75 1014.9
20260508180611 12 187 1.6 4.8 0.00 0.00 0.00 75 1014.9
20260508180132 12 191 1.6 6.4 0.00 0.00 0.00 75 1014.9
20260508175617 12 208 3.2 6.4 0.00 0.00 0.00 75 1014.8
20260508175121 12 190 3.2 8.0 0.00 0.00 0.00 75 1014.9
20260508174631 12 213 3.2 11.3 0.00 0.00 0.00 75 1014.7
20260508174135 12 200 4.8 11.3 0.00 0.00 0.00 76 1014.8
20260508173623 12 217 4.8 12.9 0.00 0.00 0.00 76 1014.8
20260508173132 12 196 4.8 12.9 0.00 0.00 0.00 75 1014.9
20260508172615 12 209 6.4 11.3 0.00 0.00 0.00 75 1014.9
20260508172125 12 207 4.8 11.3 0.00 0.00 0.00 75 1014.8
20260508171653 12 233 6.4 12.9 0.00 0.00 0.00 75 1014.9
20260508171114 12 211 6.4 12.9 0.00 0.00 0.00 75 1014.8
20260508170623 12 233 8.0 12.9 0.00 0.00 0.00 75 1014.8
20260508170153 12 211 6.4 12.9 0.00 0.00 0.00 75 1014.7
20260508165615 12 202 3.2 12.9 0.00 0.00 0.00 77 1014.6
20260508165146 12 192 6.4 12.9 0.00 0.00 0.00 80 1014.6
20260508164634 11 173 3.2 8.0 0.00 0.00 0.00 83 1014.6
20260508164114 11 175 1.6 3.2 0.00 0.00 0.00 84 1014.5
20260508163621 11 183 0.0 1.6 0.00 0.00 0.00 83 1014.4
20260508162612 11 183 0.0 3.2 0.00 0.00 0.00 82 1014.4
20260508162121 11 183 0.0 3.2 0.00 0.00 0.00 82 1014.3
20260508161629 11 182 0.0 1.6 0.00 0.00 0.00 82 1014.2
20260508161111 11 182 1.6 1.6 0.00 0.00 0.00 82 1014.2
20260508160621 11 182 0.0 3.2 0.00 0.00 0.00 82 1014.1
20260508160125 11 183 1.6 3.2 0.00 0.00 0.00 82 1014.1
20260508155635 11 181 1.6 3.2 0.00 0.00 0.00 82 1014.2
20260508155117 11 170 0.0 3.2 0.00 0.00 0.00 81 1014.3
20260508154627 11 170 0.0 3.2 0.00 0.00 0.00 81 1014.3
20260508154137 11 170 0.0 4.8 0.00 0.00 0.00 81 1014.2
20260508153622 11 181 1.6 4.8 0.00 0.00 0.00 81 1014.2
20260508153130 11 188 1.6 3.2 0.00 0.00 0.00 81 1014.2
20260508152611 11 176 0.0 0.0 0.00 0.00 0.00 81 1014.1
20260508152117 11 176 0.0 0.0 0.00 0.00 0.00 80 1014.1
20260508151629 11 176 0.0 0.0 0.00 0.00 0.00 80 1014.1
20260508151113 11 176 0.0 0.0 0.00 0.00 0.00 79 1014.0
20260508150625 11 176 0.0 0.0 0.00 0.00 0.00 78 1014.1
20260508150136 11 176 0.0 3.2 0.00 0.00 0.00 78 1014.0
20260508145611 11 176 1.6 3.2 0.00 0.00 0.00 78 1014.0
20260508145119 12 176 1.6 3.2 0.00 0.00 0.00 78 1014.0
20260508144611 12 176 0.0 1.6 0.00 0.00 0.00 78 1013.9
20260508144136 12 176 0.0 3.2 0.00 0.00 0.00 77 1013.9
20260508143619 12 176 0.0 3.2 0.00 0.00 0.00 77 1014.0
20260508143128 12 176 0.0 1.6 0.00 0.00 0.00 77 1014.0
20260508142638 12 176 0.0 1.6 0.00 0.00 0.00 77 1014.0
20260508142117 12 176 0.0 1.6 0.00 0.00 0.00 77 1014.0
20260508141627 12 176 0.0 3.2 0.00 0.00 0.00 76 1013.9
20260508140648 12 174 0.0 3.2 0.00 0.00 0.00 76 1013.8
20260508140135 12 180 1.6 3.2 0.00 0.00 0.00 76 1013.8
20260508135620 12 157 0.0 1.6 0.00 0.00 0.00 76 1013.7
20260508135150 12 157 0.0 1.6 0.00 0.00 0.00 76 1013.8
20260508134612 12 157 1.6 3.2 0.00 0.00 0.00 76 1013.7
20260508134122 12 156 1.6 3.2 0.00 0.00 0.00 76 1013.5
20260508133653 12 155 0.0 3.2 0.00 0.00 0.00 76 1013.5
20260508133114 12 155 1.6 3.2 0.00 0.00 0.00 75 1013.5
20260508132623 12 155 0.0 1.6 0.00 0.00 0.00 75 1013.4
20260508132113 12 155 1.6 1.6 0.00 0.00 0.00 75 1013.3
20260508131640 13 155 0.0 3.2 0.00 0.00 0.00 75 1013.4
20260508131129 13 155 0.0 3.2 0.00 0.00 0.00 74 1013.4
20260508130612 13 155 0.0 1.6 0.00 0.00 0.00 74 1013.3
20260508130121 13 155 0.0 1.6 0.00 0.00 0.00 74 1013.3
20260508125630 13 154 0.0 1.6 0.00 0.00 0.00 74 1013.3
20260508125209 13 155 1.6 3.2 0.00 0.00 0.00 73 1013.4
20260508124641 13 154 1.6 3.2 0.00 0.00 0.00 73 1013.3
20260508124130 13 145 0.0 1.6 0.00 0.00 0.00 73 1013.3
20260508123612 13 145 0.0 1.6 0.00 0.00 0.00 72 1013.2
20260508123122 13 145 0.0 1.6 0.00 0.00 0.00 71 1013.2
20260508122633 13 145 0.0 1.6 0.00 0.00 0.00 71 1013.1
20260508122115 13 145 0.0 1.6 0.00 0.00 0.00 70 1013.1
20260508121624 14 145 0.0 3.2 0.00 0.00 0.00 70 1013.1
20260508121133 14 145 1.6 3.2 0.00 0.00 0.00 69 1013.0
20260508120613 14 170 0.0 0.0 0.00 0.00 0.00 69 1013.1
20260508120125 14 170 0.0 0.0 0.00 0.00 0.00 68 1013.0
20260508115636 15 170 0.0 1.6 0.00 0.00 0.00 68 1013.1
20260508115118 15 170 0.0 1.6 0.00 0.00 0.00 67 1012.9
20260508114628 15 170 0.0 0.0 0.00 0.00 0.00 66 1012.9
20260508114111 15 170 0.0 1.6 0.00 0.00 0.00 66 1012.9
20260508113611 15 170 0.0 3.2 0.00 0.00 0.00 65 1012.8
20260508113120 15 170 1.6 3.2 0.00 0.00 0.00 64 1012.7
20260508112626 16 161 1.6 1.6 0.00 0.00 0.00 64 1012.7
20260508112156 16 158 0.0 3.2 0.00 0.00 0.00 63 1012.6
20260508111618 16 157 0.0 3.2 0.00 0.00 0.00 62 1012.6
20260508111128 16 155 0.0 3.2 0.00 0.00 0.00 62 1012.6
20260508110637 16 155 0.0 3.2 0.00 0.00 0.00 61 1012.5
20260508110117 16 156 1.6 3.2 0.00 0.00 0.00 61 1012.5
20260508105627 16 160 1.6 6.4 0.00 0.00 0.00 60 1012.4
20260508105155 16 156 1.6 6.4 0.00 0.00 0.00 60 1012.3
20260508104616 16 146 1.6 4.8 0.00 0.00 0.00 59 1012.2
20260508104127 17 155 1.6 6.4 0.00 0.00 0.00 59 1012.2
20260508103635 17 157 3.2 9.7 0.00 0.00 0.00 58 1012.0
20260508103117 17 169 1.6 9.7 0.00 0.00 0.00 58 1012.0
20260508102630 17 167 1.6 8.0 0.00 0.00 0.00 58 1012.0
20260508102112 17 150 3.2 11.3 0.00 0.00 0.00 58 1012.0
20260508101633 17 135 3.2 14.5 0.00 0.00 0.00 58 1011.9
20260508101119 17 121 6.4 14.5 0.00 0.00 0.00 58 1011.9
20260508100630 17 151 3.2 12.9 0.00 0.00 0.00 58 1011.8
20260508100113 17 133 1.6 12.9 0.00 0.00 0.00 58 1011.7
20260508095620 18 129 8.0 12.9 0.00 0.00 0.00 57 1011.7
20260508095130 18 136 3.2 17.7 0.00 0.00 0.00 55 1011.5
20260508094613 18 163 4.8 20.9 0.00 0.00 0.00 53 1011.3
20260508094113 18 148 9.7 20.9 0.00 0.00 0.00 51 1011.3
20260508093622 19 146 6.4 11.3 0.00 0.00 0.00 48 1011.1
20260508093126 19 146 1.6 11.3 0.00 0.00 0.00 45 1010.9
20260508092635 20 165 3.2 11.3 0.00 0.00 0.00 44 1010.9
20260508092116 20 150 3.2 12.9 0.00 0.00 0.00 44 1010.8